map of EUN home
Great Circle Mapper logo
EUN - Airport
Location
City:  El Aaiún, Western Sahara
Near (Alt.):Laâyoune
Name:Hassan International Airport
ICAO / IATA:GMML / EUN

Details
Type:Airport (Aerodrome, Airfield)
Use:Public/Civil, Military, International (customs port of entry)
Latitude:27°09'06"N (27.151667)
Longitude:13°13'09"W (-13.219166)
Datum:WGS 1984
Elevation:207 ft (63 m)
Variation:4.28°W (WMM2015 magnetic declination)
0.11° annual change
Runways:2
Longest:8861 × 148 ft (2701 × 45 m), paved

Time
Time Zone:UTC+0
Local Time:

Weather
METAR:GMML 261000Z 08008KT 9999 FEW016 14/10 Q1025 NOSIG
TAF:GMML 260500Z 2606/2712 06008KT 2000 BR
BECMG 2607/2609 CAVOK PROB30 2700/2709 2000 BR

Related Locations
Nearby:
Farthest:NLK: 12285 mi / 19771 km
Norfolk Island, NF

Find:

   beyond  
but within

Other Information
Maps:
NOTAMs:
Links:
Sources:

  

Sectional Chart

Flight Planning
at skyvector.com

Satellite Image

Google Maps Satellite View

 

Copyright © 2004-2015 Karl L. Swartz. All rights reserved.
The Great Circle Mapper name and logo are trademarks of the Great Circle Mapper.
All other trademarks mentioned herein belong to their respective owners.
Please see credits for attibutions and further copyright information.

  Follow gcmap on Facebook Follow gcmap on Twitter

hCard Microformat

Geo Microformat